Rayong, Thailand

8:04 AM +07 on April 27, 2017 (GMT +0700)
Rayong

Weather History for VTBU - January, 2014

Change the Weather History Date:

Thursday, January 16, 2014

  Actual Average Record
Temperature  
Mean Temperature 71 °F -  
Max Temperature 82 °F 87 °F 93 °F (2008)
Min Temperature 60 °F 73 °F 46 °F (2001)
Cooling Degree Days 6    
Growing Degree Days 21 (Base 50)    
Moisture  
Dew Point 52 °F    
Average Humidity 50    
Maximum Humidity 68    
Minimum Humidity 21    
Precipitation  
Precipitation 0.00 in - - ()
Sea Level Pressure  
Sea Level Pressure 30.00 in    
Wind  
Wind Speed 4 mph ()    
Max Wind Speed 12 mph    
Max Gust Speed -    
Visibility 3.7 miles    
Events      
Averages and records for this station are not official NWS values.
T = Trace of Precipitation, MM = Missing Value Source: Averaged Metar Reports

Daily Weather History Graph

Daily Weather History Graph

Search for Another Location

Airport or City:

Trip Planner

Search our weather history database for the weather conditions in past years. The results will help you decide how hot, cold, wet, or windy it might be!

Date:

Astronomy

Jan. 16, 2014 Rise Set
Actual Time 6:40 AM +07 6:08 PM +07
Civil Twilight 6:17 AM +07 6:31 PM +07
Nautical Twilight 5:51 AM +07 6:57 PM +07
Astronomical Twilight 5:25 AM +07 7:23 PM +07
Moon 6:18 PM +07 (1/16) 6:24 AM +07 (1/16)
Length of Visible Light 12h 13m
Length of Day
11h 28m
Full, 100% of the Moon is Illuminated
Jan 16
Full
Jan 24
Last Quarter
Jan 31
New
Feb 7
First Quarter
Feb 15
Full

Hourly Weather History & Observations

Time (+07) Temp. Heat Index Dew Point Humidity Pressure Visibility Wind Dir Wind Speed Gust Speed Precip Events Conditions
12:00 AM 68.0 °F - 51.8 °F 56% 30.01 in 3.1 mi North 4.6 mph - N/A   Haze
12:30 AM 66.2 °F - 51.8 °F 60% 30.01 in 3.1 mi NNE 4.6 mph - N/A   Unknown
1:00 AM 66 °F - 57 °F 65% 30.03 in 4 mi NW 3.5 mph - -   Mist
1:00 AM 68.0 °F - 51.8 °F 56% 30.01 in - North - - N/A   Haze
2:00 AM 64.4 °F - 51.8 °F 64% 30.04 in 3.1 mi NNE 3.5 mph - N/A   Haze
2:30 AM 64.4 °F - 51.8 °F 64% 30.04 in 3.1 mi NNE 4.6 mph - N/A   Unknown
3:00 AM 62.6 °F - 51.8 °F 68% 29.98 in 3.1 mi NNE 3.5 mph - N/A   Haze
4:00 AM 64 °F - 55 °F 64% 29.99 in 4 mi Calm Calm - -   Mist
4:00 AM 62.6 °F - 50.0 °F 63% 29.98 in 3.1 mi NE 4.6 mph - N/A   Mist
4:30 AM 62.6 °F - 50.0 °F 63% 29.98 in 3.1 mi NNE 4.6 mph - N/A   Mist
5:00 AM 62.6 °F - 50.0 °F 63% 29.98 in 3.1 mi NNE 4.6 mph - N/A   Mist
5:30 AM 62.6 °F - 50.0 °F 63% 30.01 in 3.1 mi NE 2.3 mph - N/A   Mist
6:00 AM 60.8 °F - 50.0 °F 68% 30.01 in 3.1 mi NNE 4.6 mph - N/A   Mist
6:30 AM 60.8 °F - 50.0 °F 68% 30.01 in 3.7 mi NNE 3.5 mph - N/A   Unknown
7:00 AM 63 °F - 54 °F 65% 30.02 in 4 mi North 2.3 mph - -   Mist
7:00 AM 60.8 °F - 50.0 °F 68% 30.04 in 3.7 mi NE 3.5 mph - N/A   Unknown
7:30 AM 60.8 °F - 50.0 °F 68% 30.04 in 4.3 mi NNE 4.6 mph - N/A   Unknown
8:00 AM 62.6 °F - 50.0 °F 63% 30.04 in 4.3 mi NE 3.5 mph - N/A   Unknown
8:30 AM 68.0 °F - 50.0 °F 52% 30.06 in 4.3 mi NE 4.6 mph - N/A   Unknown
9:00 AM 73.4 °F - 48.2 °F 41% 30.06 in 4.3 mi ENE 5.8 mph - N/A   Unknown
9:30 AM 77.0 °F - 48.2 °F 36% 30.06 in 4.3 mi East 5.8 mph - N/A   Unknown
10:00 AM 75 °F - 55 °F 39% 30.06 in 4 mi Calm Calm - -   Haze
10:00 AM 77.0 °F - 48.2 °F 36% 30.06 in 4.3 mi ENE 4.6 mph - N/A   Unknown
10:30 AM 78.8 °F - 46.4 °F 32% 30.06 in 5.0 mi North 6.9 mph - N/A   Unknown
11:00 AM 82.4 °F - 42.8 °F 25% 30.04 in 5.6 mi North 4.6 mph - N/A   Unknown
11:30 AM 82.4 °F - 39.2 °F 21% 30.04 in 5.6 mi East 3.5 mph - N/A   Unknown
12:00 PM 84.2 °F - 44.6 °F 25% 30.01 in 5.6 mi ENE 3.5 mph - N/A   Unknown
12:30 PM 84.2 °F - 42.8 °F 23% 30.01 in 5.6 mi Calm Calm - N/A   Unknown
1:00 PM 82 °F - 59 °F 35% 30.00 in 5 mi South 2.3 mph - -   Haze
1:00 PM 84.2 °F - 44.6 °F 25% 29.98 in 5.6 mi NNE 3.5 mph - N/A   Unknown
1:30 PM 84.2 °F - 48.2 °F 29% 29.98 in 5.0 mi NW 11.5 mph - N/A   Unknown
2:00 PM 84.2 °F - 48.2 °F 29% 29.95 in 5.0 mi West 4.6 mph - N/A   Unknown
2:30 PM 86.0 °F - 48.2 °F 27% 29.95 in 5.0 mi NW 8.1 mph - N/A   Unknown
3:00 PM 82.4 °F - 48.2 °F 30% 29.92 in 4.3 mi WNW 11.5 mph - N/A   Unknown
3:30 PM 84.2 °F - 51.8 °F 33% 29.92 in 4.3 mi NW 9.2 mph - N/A   Unknown
4:00 PM 82 °F - 59 °F 36% 29.94 in 5 mi SSW 4.6 mph - -   Haze
4:00 PM 82.4 °F 81.4 °F 53.6 °F 37% 29.92 in 4.3 mi NW 11.5 mph - N/A   Unknown
4:30 PM 80.6 °F 80.3 °F 53.6 °F 39% 29.92 in 3.7 mi NW 11.5 mph - N/A   Unknown
5:00 PM 80.6 °F 80.5 °F 55.4 °F 42% 29.92 in 3.7 mi NW 11.5 mph - N/A   Unknown
5:30 PM 78.8 °F - 55.4 °F 44% 29.92 in 3.1 mi NW 9.2 mph - N/A   Haze
6:00 PM 77.0 °F - 55.4 °F 47% 29.95 in 3.1 mi NW 9.2 mph - N/A   Haze
6:30 PM 77.0 °F - 57.2 °F 50% 29.95 in 2.5 mi NNW 6.9 mph - N/A   Haze
7:00 PM 77 °F - 62 °F 50% 29.95 in 4 mi Calm Calm - -   Haze
7:00 PM 75.2 °F - 57.2 °F 53% 29.95 in 2.5 mi NNW 6.9 mph - N/A   Haze
7:30 PM 73.4 °F - 57.2 °F 57% 29.98 in 1.9 mi NNW 6.9 mph - N/A   Haze
8:00 PM 71.6 °F - 57.2 °F 60% 29.98 in 1.9 mi NNW 6.9 mph - N/A   Haze
8:30 PM 71.6 °F - 55.4 °F 57% 29.98 in 1.9 mi NNW 4.6 mph - N/A   Haze
9:00 PM 71.6 °F - 55.4 °F 57% 29.98 in 1.9 mi North 4.6 mph - N/A   Haze
9:30 PM 69.8 °F - 53.6 °F 56% 30.01 in 1.9 mi North 4.6 mph - N/A   Haze
10:00 PM 69 °F - 60 °F 65% 30.01 in 4 mi Calm Calm - -   Mist
10:00 PM 69.8 °F - 55.4 °F 60% 30.01 in 1.9 mi North 4.6 mph - N/A   Haze
10:30 PM 68.0 °F - 55.4 °F 64% 30.01 in 1.9 mi NNW 3.5 mph - N/A   Mist
11:00 PM 66.2 °F - 53.6 °F 64% 30.01 in 1.9 mi NNW 3.5 mph - N/A   Mist
11:30 PM 66.2 °F - 53.6 °F 64% 30.01 in 1.9 mi NW 3.5 mph - N/A   Mist